Regional Weather Roundup
Issued by NWS

Home | Current Version | Previous Version | Graphics & Text | Print | Product List | Glossary On
Versions: 1 2 3 4 5 6 7 8 9 10 11 12 13 14 15 16 17 18 19 20 21 22 23 24 25 26 27 28 29 30 31 32 33 34 35 36 37 38 39 40 41 42 43 44 45 46 47 48 49 50
000
ASUS43 KMKX 162021
RWRWI

WISCONSIN REGIONAL WEATHER ROUNDUP
NATIONAL WEATHER SERVICE MILWAUKEE/SULLIVAN WI
300 PM CDT MON OCT 16 2017

NOTE: "FAIR" INDICATES FEW OR NO CLOUDS BELOW 12,000 FEET WITH NO
SIGNIFICANT WEATHER AND/OR OBSTRUCTIONS TO VISIBILITY.

WIZ001-002-006>008-014>016-023>028-162100-
NORTHWEST WISCONSIN

CITY           SKY/WX    TMP DP  RH WIND       PRES   REMARKS
SUPERIOR ARPT  SUNNY     61  36  39 SW12G18   30.02F
ASHLAND        SUNNY     59  34  39 SW15G25   30.06F
HAYWARD        SUNNY     58  31  35 SW9G18    30.08F
SIREN          SUNNY     60  32  34 SW10      30.07F
CUMBERLAND     SUNNY     57  32  38 SW10      30.10F
RICE LAKE      SUNNY     60  31  33 SW7       30.12F
CHETEK         SUNNY     59  35  39 SW7       30.11F
LADYSMITH      SUNNY     58  35  41 W10G18    30.13F
EAU CLAIRE     SUNNY     60  33  36 SW13G21   30.13F
MENOMONIE      SUNNY     61  35  37 S10       30.13F
NEW RICHMOND   SUNNY     61  32  33 SW8G16    30.11F
OSCEOLA        SUNNY     62  34  34 SW13      30.12F
$$

WIZ003>005-009-010-017-018-162100-
NORTH CENTRAL WISCONSIN

CITY           SKY/WX    TMP DP  RH WIND       PRES   REMARKS
MANITOWISH WTR SUNNY     56  36  47 SW14G22   30.08F
ARBOR VITAE    SUNNY     57  36  44 SW13G22   30.09F
WOODRUFF       SUNNY     57  36  44 SW13G22   30.09F
RHINELANDER    MOSUNNY   56  37  49 SW13G21   30.11F
EAGLE RIVER    MOSUNNY   55  32  42 W13G20    30.10S
LAND O LAKES   SUNNY     55  33  43 W8        30.10F
PHILLIPS       SUNNY     55  34  44 SW16G22   30.10F
TOMAHAWK       SUNNY     55  34  44 SW8       30.12F
MEDFORD        SUNNY     56  34  44 W13G20    30.13F
MERRILL        SUNNY     57  36  46 W13G23    30.12F
$$

WIZ029-030-035-036-043>047-162100-
CENTRAL WISCONSIN

CITY           SKY/WX    TMP DP  RH WIND       PRES   REMARKS
WAUSAU         SUNNY     57  36  45 W13G22    30.13F
MOSINEE        MOSUNNY   57  36  44 SW14G21   30.15F
MARSHFIELD     SUNNY     58  34  40 W16       30.14F
STEVENS POINT  SUNNY     56  33  41 W10       30.16F
WAUPACA        SUNNY     61  36  39 W14       30.17F
WAUTOMA        SUNNY     60  37  42 W15       30.18F
WISC RAPIDS    SUNNY     60  37  42 W15G21    30.16F
CAMP DOUGLAS   MOSUNNY   61  36  39 SW12      30.16F
$$

WIZ011>013-019>022-031-037>040-048>050-162100-
NORTHEAST WISCONSIN

CITY           SKY/WX    TMP DP  RH WIND       PRES   REMARKS
ANTIGO         MOSUNNY   55  38  52 W16G23    30.13F
SHAWANO        MOSUNNY   60  37  42 W12G18    30.15F
OCONTO         MOSUNNY   57  37  47 W10       30.15F
STURGEON BAY   SUNNY     55  38  52 SW15      30.16F
GREEN BAY      SUNNY     58  41  53 SW12      30.17F
MANITOWOC      SUNNY     58  36  43 SW14G20   30.19F
APPLETON       MOSUNNY   57  32  38 SW14G20   30.16F
CLINTONVILLE   SUNNY     59  34  38 W16       30.16F
OSHKOSH        SUNNY     58  36  43 SW8       30.18F
$$

WIZ032>034-041-042-053>061-162100-
SOUTHWEST WISCONSIN

CITY           SKY/WX    TMP DP  RH WIND       PRES   REMARKS
LA CROSSE      SUNNY     65  33  30 W10       30.16F
SPARTA         SUNNY     60  37  42 W10G17    30.18F
VIROQUA        SUNNY     60  36  40 W8        30.19F
BOSCOBEL       SUNNY     64  35  34 SW9       30.21F
PRAIRIE DU CHI SUNNY     64  31  28 SW8       30.19F
PLATTEVILLE    SUNNY     62  37  39 SW13G18   30.22F
$$

WIZ056-057-062-063-064-067-068-162100-
SOUTH CENTRAL WISCONSIN

CITY           SKY/WX    TMP DP  RH WIND       PRES   REMARKS
REEDSBURG      SUNNY     60  38  44 SW7       30.19F
BARABOO/DELLS  SUNNY     59  34  40 W15       30.19F
LONE ROCK      SUNNY     62  37  39 SW8       30.20F
MINERAL POINT  SUNNY     63  34  34 SW8       30.21F
MADISON        MOSUNNY   59  36  42 SW9       30.20F
MIDDLETON      SUNNY     62  35  36 SW7G16    30.21F
WATERTOWN      SUNNY     59  35  39 W9        30.21F
MONROE         SUNNY     61  32  33 SW14      30.22F
JANESVILLE     SUNNY     63  34  34 W12       30.22F
$$

WIZ051-052-058>065-066-070>072-162100-
SOUTHEAST WISCONSIN

CITY           SKY/WX    TMP DP  RH WIND       PRES   REMARKS
MILWAUKEE      MOSUNNY   61  33  35 NW9       30.22F
WAUKESHA       SUNNY     57  36  44 SW7       30.23F
MILWAUKEE/TIMM SUNNY     61  30  31 SW9       30.23F
RACINE         MOSUNNY   61  36  39 W8        30.23F
BURLINGTON     SUNNY     62  36  37 W8        30.22F
KENOSHA        MOSUNNY   61  37  41 W12       30.23F
FOND DU LAC    SUNNY     60  33  36 SW7G17    30.19F
SHEBOYGAN      SUNNY     59  37  44 W6        30.19F
WEST BEND      SUNNY     59  32  36 W9        30.20F
JUNEAU         SUNNY     58  35  42 SW14      30.21F
$$

LSZ147-162-162100-
LAKE SUPERIOR

STATION/POSITION TIME  TEMP    WIND        PRES    WAVE
                       AIR SEA DIR/SP/G            HT/PER
                 (UTC) (F)     (DEG/KT/KT) (MB)    (FT/S)
W MID LAKE BUOY  1950   53 53              1016.9F   3/ 5
DEVILS ISLAND    2000   55     230/ 14/ 18 1016.9F
PORT WING        1840          210/  9/ 16 1018.3
SAXON HARBOR     1930   59     200/ 11/ 18 1017.6F
$$

LMZ867-665-643>646-162100-
LAKE MICHIGAN

STATION/POSITION TIME  TEMP    WIND        PRES    WAVE
                       AIR SEA DIR/SP/G            HT/PER
                 (UTC) (F)     (DEG/KT/KT) (MB)    (FT/S)
S GREEN BAY BUOY 2000   56 58  220/ 14/ 17 1020.9
N MID LAKE BUOY  1950   53 60  220/ 16/ 19 1021.7F   3/ 4
NORTHPORT PIER   1940   56     200/  6/ 13 1020.7F
KEWAUNEE LAKESHO 1954   57     260/ 10/ 13 1021.0F
SHEBOYGAN LAKESH 2000   54     170/ 19/ 21 1022.2F
PORT WASHINGTON  1940   57     190/  8/ 13 1023.7F
MILWAUKEE LAKESH 2000   55     120/  9/ 10   N/A
S MID LAKE BUOY  1950   55 62  230/ 10/ 14 1024.6F   2/ 3
KENOSHA   LAKESH 2000   61     240/  9/ 13 1023.0
$$

TC  - TEMPERATURE IN CELSIUS
VSB - VISIBILITY IN STATUTE MILES
WCI - WIND CHILL INDEX
HX  - HEAT INDEX




USA.gov is the U.S. government's official web portal to all federal, state and local government web resources and services.